Back to catalog

STARLINK-31019

AliveCommunicationsVLEO
NORAD 58540·PAYLOAD·🇺🇸 United States

Launched Dec 8, 2023 from Vandenberg Space Force Base

Loading…

Next Passes (next 24 hours)

TLE

FreshSource: CelesTrak SupGP

Epoch: Sep 14, 2026, 21:01 UTC

1 58540C 23192K   26257.87618056  .00051711  00000+0  15282-2 0  2573
2 58540  53.1583 260.1413 0001250  91.7008 314.6619 15.34356629    14

Track STARLINK-31019 in real time with AllMySat

Download on the App Store